AAM015 SPZO-SCFA

Flight info

Callsign AAM015
Flight time N/A
Altitude 35000
Route LITOT UM415 OPKUL UL300 ARI UV204 REBOL REBOL5
Aircraft B738/M-SDGIJ1LRWY/SB1

Departure

Time N/A
Airport Alejandro Velasco Astete International Airport (SPZO)

Arrival

Time 2026-04-25 07:07
Airport Andrés Sabella Gálvez International Airport (SCFA)
Time Latitude Longitude Altitude Speed Heading
2026-04-25 06:03 -16.21424 -70.80750 35938 ft 460 kts 168°
2026-04-25 06:03 -16.24552 -70.80087 35920 ft 460 kts 168°
2026-04-25 06:03 -16.30806 -70.78760 35913 ft 459 kts 168°
2026-04-25 06:04 -16.37117 -70.77422 35916 ft 459 kts 168°
2026-04-25 06:04 -16.43359 -70.76097 35934 ft 459 kts 168°
2026-04-25 06:05 -16.49661 -70.74760 35942 ft 459 kts 168°
2026-04-25 06:05 -16.55923 -70.73431 35897 ft 459 kts 168°
2026-04-25 06:06 -16.62232 -70.72092 35844 ft 460 kts 168°
2026-04-25 06:06 -16.68508 -70.70760 35775 ft 460 kts 168°
2026-04-25 06:07 -16.74793 -70.69426 35739 ft 461 kts 168°
2026-04-25 06:07 -16.81066 -70.68097 35750 ft 459 kts 168°
2026-04-25 06:08 -16.87375 -70.66758 35783 ft 460 kts 168°
2026-04-25 06:08 -16.93641 -70.65426 35809 ft 459 kts 168°
2026-04-25 06:09 -16.99888 -70.64096 35865 ft 458 kts 168°
2026-04-25 06:09 -17.06188 -70.62753 35829 ft 459 kts 168°
2026-04-25 06:10 -17.12445 -70.61418 35773 ft 459 kts 168°
2026-04-25 06:10 -17.18728 -70.60077 35721 ft 458 kts 168°
2026-04-25 06:11 -17.24968 -70.58743 35673 ft 461 kts 168°
2026-04-25 06:11 -17.31270 -70.57395 35608 ft 459 kts 168°
2026-04-25 06:12 -17.37542 -70.56053 35573 ft 459 kts 168°
2026-04-25 06:12 -17.43785 -70.54717 35474 ft 460 kts 168°
2026-04-25 06:13 -17.50060 -70.53373 35434 ft 459 kts 168°
2026-04-25 06:14 -17.59514 -70.51345 35306 ft 461 kts 168°
2026-04-25 06:14 -17.65804 -70.49993 35288 ft 461 kts 168°
2026-04-25 06:15 -17.72075 -70.48646 35240 ft 459 kts 168°
2026-04-25 06:15 -17.78359 -70.47295 35188 ft 460 kts 168°
2026-04-25 06:16 -17.84645 -70.45943 35170 ft 459 kts 168°
2026-04-25 06:16 -17.90908 -70.44595 35144 ft 460 kts 168°
2026-04-25 06:17 -17.97197 -70.43241 35115 ft 460 kts 168°
2026-04-25 06:17 -18.03453 -70.41892 35090 ft 460 kts 168°
2026-04-25 06:18 -18.09787 -70.40526 35079 ft 461 kts 168°
2026-04-25 06:18 -18.16045 -70.39174 35074 ft 462 kts 168°
2026-04-25 06:19 -18.22374 -70.37807 35066 ft 461 kts 168°
2026-04-25 06:19 -18.28637 -70.36453 35060 ft 461 kts 168°
2026-04-25 06:20 -18.34961 -70.35084 35058 ft 461 kts 168°
2026-04-25 06:20 -18.41319 -70.34058 35053 ft 461 kts 174°
2026-04-25 06:21 -18.47705 -70.33505 35048 ft 463 kts 176°
2026-04-25 06:21 -18.54176 -70.33035 35048 ft 463 kts 176°
2026-04-25 06:22 -18.60572 -70.32553 35049 ft 462 kts 176°
2026-04-25 06:22 -18.67008 -70.32037 35052 ft 462 kts 176°
2026-04-25 06:23 -18.73448 -70.31500 35047 ft 461 kts 176°
2026-04-25 06:23 -18.79822 -70.30958 35056 ft 461 kts 175°
2026-04-25 06:24 -18.86247 -70.30406 35061 ft 460 kts 176°
2026-04-25 06:24 -18.92655 -70.29855 35073 ft 462 kts 176°
2026-04-25 06:25 -18.99057 -70.29301 35073 ft 461 kts 176°
2026-04-25 06:25 -19.05470 -70.28748 35075 ft 462 kts 176°
2026-04-25 06:26 -19.11850 -70.28195 35080 ft 461 kts 176°
2026-04-25 06:26 -19.18277 -70.27640 35080 ft 461 kts 176°
2026-04-25 06:27 -19.24701 -70.27084 35072 ft 462 kts 176°
2026-04-25 06:27 -19.31133 -70.26527 35069 ft 463 kts 176°
2026-04-25 06:28 -19.37562 -70.25970 35055 ft 462 kts 176°
2026-04-25 06:28 -19.43973 -70.25497 35046 ft 463 kts 177°
2026-04-25 06:29 -19.50436 -70.25098 35026 ft 462 kts 178°
2026-04-25 06:29 -19.56855 -70.24712 35024 ft 462 kts 178°
2026-04-25 06:30 -19.63284 -70.24319 35025 ft 463 kts 178°
2026-04-25 06:30 -19.69731 -70.23915 35026 ft 464 kts 178°
2026-04-25 06:31 -19.76190 -70.23505 35029 ft 464 kts 178°
2026-04-25 06:31 -19.82645 -70.23094 35032 ft 464 kts 178°
2026-04-25 06:32 -19.89081 -70.22683 35033 ft 463 kts 178°
2026-04-25 06:32 -19.95565 -70.22268 35034 ft 464 kts 178°
2026-04-25 06:33 -20.02000 -70.21856 35034 ft 464 kts 178°
2026-04-25 06:33 -20.08459 -70.21442 35036 ft 464 kts 178°
2026-04-25 06:34 -20.14934 -70.21027 35035 ft 465 kts 178°
2026-04-25 06:34 -20.21377 -70.20612 35035 ft 464 kts 178°
2026-04-25 06:35 -20.27861 -70.20195 35038 ft 465 kts 178°
2026-04-25 06:35 -20.34311 -70.19778 35037 ft 465 kts 179°
2026-04-25 06:36 -20.40780 -70.19363 35041 ft 464 kts 178°
2026-04-25 06:36 -20.47226 -70.18948 35038 ft 465 kts 179°
2026-04-25 06:37 -20.53700 -70.18531 35042 ft 465 kts 179°
2026-04-25 06:37 -20.60201 -70.18451 35041 ft 463 kts 185°
2026-04-25 06:38 -20.66611 -70.18967 35040 ft 462 kts 188°
2026-04-25 06:38 -20.73008 -70.19640 35040 ft 462 kts 188°
2026-04-25 06:39 -20.79457 -70.20317 35035 ft 463 kts 188°
2026-04-25 06:39 -20.85875 -70.20959 35034 ft 463 kts 188°
2026-04-25 06:40 -20.92275 -70.21577 35029 ft 462 kts 188°
2026-04-25 06:40 -20.98657 -70.22182 35032 ft 461 kts 188°
2026-04-25 06:41 -21.05078 -70.22786 35031 ft 461 kts 188°
2026-04-25 06:41 -21.11475 -70.23386 35031 ft 462 kts 188°
2026-04-25 06:42 -21.17905 -70.23991 35028 ft 462 kts 188°
2026-04-25 06:42 -21.24316 -70.24593 35028 ft 462 kts 188°
2026-04-25 06:43 -21.30711 -70.25195 35022 ft 461 kts 188°
2026-04-25 06:43 -21.37134 -70.25799 35022 ft 461 kts 188°
2026-04-25 06:44 -21.43533 -70.26402 35020 ft 462 kts 188°
2026-04-25 06:44 -21.49913 -70.27002 34915 ft 460 kts 188°
2026-04-25 06:44 -21.53114 -70.27303 34464 ft 456 kts 188°
2026-04-25 06:45 -21.56251 -70.27598 33923 ft 451 kts 188°
2026-04-25 06:45 -21.59370 -70.27891 33512 ft 446 kts 188°
2026-04-25 06:45 -21.62464 -70.28183 33003 ft 449 kts 188°
2026-04-25 06:45 -21.65569 -70.28479 32499 ft 451 kts 188°
2026-04-25 06:46 -21.68729 -70.28779 31961 ft 449 kts 188°
2026-04-25 06:46 -21.71821 -70.29071 31425 ft 446 kts 188°
2026-04-25 06:46 -21.74918 -70.29364 30881 ft 444 kts 188°
2026-04-25 06:46 -21.77978 -70.29653 30341 ft 441 kts 188°
2026-04-25 06:47 -21.81008 -70.29940 29799 ft 439 kts 188°
2026-04-25 06:47 -21.84061 -70.30229 29248 ft 438 kts 188°
2026-04-25 06:47 -21.87112 -70.30518 28694 ft 436 kts 188°
2026-04-25 06:47 -21.90123 -70.30804 28142 ft 434 kts 188°
2026-04-25 06:48 -21.93105 -70.31083 27593 ft 432 kts 188°
2026-04-25 06:48 -21.96123 -70.31330 27020 ft 430 kts 187°
2026-04-25 06:48 -21.99094 -70.31541 26475 ft 425 kts 186°
2026-04-25 06:48 -22.02004 -70.31735 25939 ft 418 kts 186°
2026-04-25 06:49 -22.04896 -70.31923 25398 ft 412 kts 186°
2026-04-25 06:49 -22.07736 -70.32108 24863 ft 407 kts 186°
2026-04-25 06:49 -22.10529 -70.32294 24334 ft 401 kts 186°
2026-04-25 06:49 -22.13310 -70.32481 23805 ft 395 kts 186°
2026-04-25 06:50 -22.16032 -70.32667 23284 ft 389 kts 186°
2026-04-25 06:50 -22.18702 -70.32852 22773 ft 383 kts 186°
2026-04-25 06:50 -22.21368 -70.33038 22254 ft 376 kts 186°
2026-04-25 06:50 -22.23940 -70.33217 21783 ft 370 kts 186°
2026-04-25 06:51 -22.26488 -70.33395 21295 ft 364 kts 186°
2026-04-25 06:51 -22.28990 -70.33571 20819 ft 359 kts 186°
2026-04-25 06:51 -22.31477 -70.33746 20330 ft 359 kts 186°
2026-04-25 06:51 -22.34006 -70.33926 19799 ft 362 kts 186°
2026-04-25 06:52 -22.36483 -70.34103 19344 ft 357 kts 186°
2026-04-25 06:52 -22.38946 -70.34275 18873 ft 352 kts 185°
2026-04-25 06:52 -22.41374 -70.34446 18365 ft 346 kts 185°
2026-04-25 06:52 -22.43767 -70.34614 17935 ft 341 kts 185°
2026-04-25 06:53 -22.46153 -70.34783 17461 ft 347 kts 185°
2026-04-25 06:53 -22.48568 -70.34955 16955 ft 345 kts 185°
2026-04-25 06:53 -22.50921 -70.35120 16471 ft 339 kts 185°
2026-04-25 06:53 -22.53279 -70.35285 16029 ft 333 kts 185°
2026-04-25 06:54 -22.55579 -70.35447 15581 ft 328 kts 185°
2026-04-25 06:54 -22.57851 -70.35608 15118 ft 329 kts 184°
2026-04-25 06:54 -22.60146 -70.35770 14662 ft 331 kts 184°
2026-04-25 06:54 -22.62430 -70.35931 14207 ft 326 kts 184°
2026-04-25 06:55 -22.64697 -70.36092 13737 ft 320 kts 184°
2026-04-25 06:55 -22.66888 -70.36246 13322 ft 314 kts 184°
2026-04-25 06:55 -22.69083 -70.36401 12917 ft 319 kts 184°
2026-04-25 06:55 -22.71313 -70.36558 12443 ft 320 kts 184°
2026-04-25 06:56 -22.73516 -70.36713 11998 ft 315 kts 184°
2026-04-25 06:56 -22.75690 -70.36865 11563 ft 310 kts 184°
2026-04-25 06:56 -22.77839 -70.37018 11110 ft 305 kts 183°
2026-04-25 06:56 -22.79959 -70.37168 10691 ft 309 kts 183°
2026-04-25 06:57 -22.82110 -70.37320 10329 ft 307 kts 183°
2026-04-25 06:57 -22.84197 -70.37468 10183 ft 291 kts 183°
2026-04-25 06:57 -22.86187 -70.37609 9928 ft 282 kts 183°
2026-04-25 06:57 -22.88123 -70.37746 9542 ft 278 kts 183°
2026-04-25 06:58 -22.90054 -70.37918 9197 ft 273 kts 185°
2026-04-25 06:58 -22.91951 -70.38140 8852 ft 278 kts 185°
2026-04-25 06:58 -22.93891 -70.38383 8497 ft 280 kts 185°
2026-04-25 06:58 -22.95818 -70.38621 8132 ft 275 kts 185°
2026-04-25 06:59 -22.97678 -70.38843 7792 ft 269 kts 185°
2026-04-25 06:59 -22.99554 -70.39062 7476 ft 274 kts 185°
2026-04-25 06:59 -23.01482 -70.39287 7094 ft 274 kts 185°
2026-04-25 06:59 -23.03361 -70.39506 6771 ft 269 kts 184°
2026-04-25 07:00 -23.05190 -70.39720 6411 ft 264 kts 184°
2026-04-25 07:00 -23.07038 -70.39937 6104 ft 270 kts 184°
2026-04-25 07:00 -23.08907 -70.40166 5746 ft 269 kts 185°
2026-04-25 07:00 -23.10768 -70.40401 5399 ft 264 kts 184°
2026-04-25 07:01 -23.12561 -70.40621 5220 ft 252 kts 184°
2026-04-25 07:01 -23.14249 -70.40826 5148 ft 239 kts 184°
2026-04-25 07:01 -23.15936 -70.41028 5108 ft 242 kts 184°
2026-04-25 07:01 -23.17578 -70.41223 4928 ft 236 kts 184°
2026-04-25 07:02 -23.19210 -70.41422 4608 ft 234 kts 184°
2026-04-25 07:02 -23.20809 -70.41620 4349 ft 226 kts 184°
2026-04-25 07:02 -23.22334 -70.41811 4115 ft 214 kts 184°
2026-04-25 07:02 -23.23779 -70.41997 3937 ft 201 kts 184°
2026-04-25 07:03 -23.25114 -70.42168 3802 ft 189 kts 184°
2026-04-25 07:03 -23.26402 -70.42328 3667 ft 182 kts 184°
2026-04-25 07:03 -23.27641 -70.42477 3516 ft 177 kts 184°
2026-04-25 07:03 -23.28873 -70.42628 3390 ft 171 kts 184°
2026-04-25 07:04 -23.30048 -70.42772 3187 ft 168 kts 184°
2026-04-25 07:04 -23.31206 -70.42914 3024 ft 165 kts 184°
2026-04-25 07:04 -23.32330 -70.43052 2877 ft 164 kts 184°
2026-04-25 07:04 -23.33478 -70.43191 2739 ft 162 kts 184°
2026-04-25 07:05 -23.34598 -70.43327 2519 ft 163 kts 184°
2026-04-25 07:05 -23.35709 -70.43464 2208 ft 156 kts 184°
2026-04-25 07:05 -23.36789 -70.43597 1978 ft 156 kts 185°
2026-04-25 07:05 -23.37857 -70.43727 1730 ft 153 kts 185°
2026-04-25 07:06 -23.38931 -70.43859 1518 ft 152 kts 185°
2026-04-25 07:06 -23.40000 -70.43988 1328 ft 157 kts 186°
2026-04-25 07:06 -23.41071 -70.44118 993 ft 153 kts 186°
2026-04-25 07:06 -23.42134 -70.44244 710 ft 152 kts 186°
2026-04-25 07:07 -23.43179 -70.44346 513 ft 148 kts 187°
2026-04-25 07:07 -23.44108 -70.44464 407 ft 103 kts 186°
2026-04-25 07:07 -23.44604 -70.44522 386 ft 49 kts 188°
2026-04-25 07:07 -23.44949 -70.44565 381 ft 48 kts 186°
2026-04-25 07:08 -23.45140 -70.44581 377 ft 13 kts 178°
2026-04-25 07:08 -23.45207 -70.44543 377 ft 10 kts 115°
2026-04-25 07:08 -23.45218 -70.44493 377 ft 0 kts 93°
2026-04-25 07:08 -23.45218 -70.44486 378 ft 6 kts 94°
2026-04-25 07:09 -23.45229 -70.44395 379 ft 13 kts 97°
2026-04-25 07:09 -23.45235 -70.44323 381 ft 4 kts 94°
2026-04-25 07:09 -23.45238 -70.44282 381 ft 7 kts 94°
2026-04-25 07:09 -23.45243 -70.44259 382 ft 0 kts 116°
2026-04-25 07:10 -23.45255 -70.44241 382 ft 3 kts 138°
2026-04-25 07:10 -23.45290 -70.44226 381 ft 8 kts 173°
2026-04-25 07:10 -23.45350 -70.44231 380 ft 5 kts 186°
2026-04-25 07:10 -23.45365 -70.44222 380 ft 0 kts 71°
2026-04-25 07:11 -23.45360 -70.44221 380 ft 0 kts 344°
2026-04-25 07:11 -23.45347 -70.44224 380 ft 0 kts 348°
2026-04-25 07:13 -23.45346 -70.44224 380 ft 1 kts 348°
2026-04-25 07:14 -23.45330 -70.44227 381 ft 0 kts 355°
2026-04-25 07:14 -23.45313 -70.44228 381 ft 4 kts 358°
2026-04-25 07:14 -23.45281 -70.44227 382 ft 4 kts 359°
2026-04-25 07:14 -23.45247 -70.44247 382 ft 7 kts 302°
2026-04-25 07:15 -23.45237 -70.44286 381 ft 3 kts 277°
2026-04-25 07:15 -23.45236 -70.44308 381 ft 2 kts 274°
2026-04-25 07:15 -23.45232 -70.44353 380 ft 8 kts 277°
2026-04-25 07:15 -23.45206 -70.44396 380 ft 6 kts 336°
2026-04-25 07:16 -23.45167 -70.44400 380 ft 4 kts
2026-04-25 07:16 -23.45123 -70.44395 381 ft 11 kts
2026-04-25 07:16 -23.45014 -70.44374 382 ft 17 kts 20°
2026-04-25 07:16 -23.44960 -70.44278 384 ft 14 kts 55°
2026-04-25 07:17 -23.44923 -70.44210 385 ft 6 kts 79°
2026-04-25 07:17 -23.44922 -70.44174 385 ft 1 kts 95°
2026-04-25 07:17 -23.44923 -70.44172 385 ft 0 kts 95°
2026-04-25 07:17 -23.44923 -70.44168 385 ft 0 kts 95°
2026-04-25 07:18 -23.44923 -70.44167 385 ft 0 kts 95°